Overview Statistics Trail Chart Weather Telemetry Raw packets
 

This is the latest recevied weather packets stored in our database for station/object N5JXS. If no packets are shown the sender has not sent any weather packets the latest 10 day(s).

<< 89 90 91 92 93 94 95 >>
Time Temp. Humidity Pressure Rain* Wind** Luminosity Snow
1787965755 18.33° C 63% 1028.3 hPa 0 mm - 16 W/m² -
1787965456 18.33° C 67% 1028.2 hPa 0 mm - 21 W/m² -
1787965155 18.33° C 67% 1028.3 hPa 0 mm - 26 W/m² -
1787964850 17.78° C 68% 1028.1 hPa 0 mm - 28 W/m² -
1787964545 17.78° C 68% 1028.3 hPa 0 mm - 28 W/m² -
1787964240 18.33° C 67% 1027.8 hPa 0 mm - 27 W/m² -
1787963939 18.33° C 65% 1028.1 hPa 0 mm - 26 W/m² -
1787963634 18.33° C 64% 1028 hPa 0 mm - 26 W/m² -
1787963329 18.33° C 60% 1028.1 hPa 0 mm - 31 W/m² -
1787963029 19.44° C 60% 1028.1 hPa 0 mm - 32 W/m² -
1787962723 19.44° C 55% 1028.1 hPa 0 mm - 38 W/m² -
1787962423 19.44° C 54% 1028.5 hPa 0 mm - 52 W/m² -
1787962121 18.89° C 56% 1028 hPa 0 mm - 69 W/m² -
1787961822 18.89° C 56% 1028 hPa 0 mm - 77 W/m² -
1787961520 18.33° C 58% 1028.2 hPa 0 mm - 62 W/m² -
1787961215 17.78° C 62% 1028.2 hPa 0 mm - 52 W/m² -
1787960914 17.22° C 66% 1028.5 hPa 0 mm - 48 W/m² -
1787960609 17.22° C 68% 1028.7 hPa 1.27 mm - 49 W/m² -
1787960307 17.22° C 70% 1028.7 hPa 1.27 mm - 34 W/m² -
1787960002 17.22° C 65% 1029.6 hPa 0 mm - 24 W/m² -
1787959697 16.11° C 72% 1029.7 hPa 1.78 mm - 12 W/m² -
1787959393 17.22° C 73% 1029.5 hPa 3.05 mm - 10 W/m² -
1787959087 18.89° C 65% 1029.3 hPa 1.27 mm - 7 W/m² -
1787958782 18.33° C 56% 1028.8 hPa 0 mm - 9 W/m² -
1787958478 17.78° C 63% 1028.6 hPa 0 mm - 10 W/m² -

* Rain latest hour (hover to see other rain measurements)
** Current wind speed in m/s (hover to see current wind gust speed)